Orange, MA

9:18 PM EDT on April 23, 2017 (GMT -0400)
Orange Municipal

Weather History for KORE - February, 2014

Change the Weather History Date:

Sunday, February 2, 2014

  Actual Average Record
Temperature  
Mean Temperature 36 °F -  
Max Temperature 45 °F 31 °F 46 °F (2016)
Min Temperature 27 °F 11 °F -4 °F (2005)
Degree Days  
Heating Degree Days 29    
Moisture  
Dew Point 32 °F    
Average Humidity 88    
Maximum Humidity 100    
Minimum Humidity 60    
Precipitation  
Precipitation 0.04 in - - ()
Sea Level Pressure  
Sea Level Pressure 29.93 in    
Wind  
Wind Speed 3 mph (SW)    
Max Wind Speed 8 mph    
Max Gust Speed -    
Visibility 6 miles    
Events Rain    
Averages and records for this station are not official NWS values.
T = Trace of Precipitation, MM = Missing Value Source: NWS Daily Summary

Daily Weather History Graph

Daily Weather History Graph

Search for Another Location

Airport or City:

Trip Planner

Search our weather history database for the weather conditions in past years. The results will help you decide how hot, cold, wet, or windy it might be!

Date:

Astronomy

Feb. 02, 2014 Rise Set
Actual Time 7:02 AM EST 5:04 PM EST
Civil Twilight 6:32 AM EST 5:33 PM EST
Nautical Twilight 5:58 AM EST 6:07 PM EST
Astronomical Twilight 5:25 AM EST 6:40 PM EST
Moon 8:21 AM EST (2/2) 8:50 PM EST (2/2)
Length of Visible Light 11h 01m
Length of Day
10h 01m
Waxing Crescent, 11% of the Moon is Illuminated
Feb 2
Waxing Crescent
Feb 6
First Quarter
Feb 14
Full
Feb 22
Last Quarter
Mar 1
New

Hourly Weather History & Observations

Time (EST) Temp. Windchill Dew Point Humidity Pressure Visibility Wind Dir Wind Speed Gust Speed Precip Events Conditions
12:52 AM 37.0 °F 31.0 °F 30.9 °F 79% 29.99 in 10.0 mi South 8.1 mph - N/A   Overcast
1:52 AM 37.0 °F 33.3 °F 32.0 °F 82% 29.96 in 10.0 mi SE 4.6 mph - N/A   Overcast
2:52 AM 37.0 °F 31.0 °F 33.1 °F 86% 29.93 in 10.0 mi South 8.1 mph - N/A   Overcast
3:17 AM 37.0 °F - 32.0 °F 82% 29.89 in 10.0 mi Calm Calm - N/A   Scattered Clouds
3:52 AM 33.1 °F - 30.9 °F 92% 29.90 in 7.0 mi Calm Calm - N/A   Clear
4:52 AM 28.9 °F - 28.0 °F 96% 29.90 in 4.0 mi Calm Calm - N/A   Clear
5:52 AM 28.0 °F - 26.1 °F 92% 29.89 in 4.0 mi Calm Calm - N/A   Clear
6:14 AM 27.0 °F - 26.1 °F 96% 29.87 in 1.5 mi Calm Calm - N/A   Clear
6:30 AM 28.9 °F - 27.0 °F 92% 29.87 in 2.5 mi Calm Calm - N/A   Clear
6:40 AM 28.0 °F - 26.1 °F 92% 29.85 in 2.5 mi Calm Calm - N/A   Scattered Clouds
6:49 AM 28.4 °F - 26.6 °F 93% 29.85 in 3.0 mi Calm Calm - N/A   Mostly Cloudy
6:52 AM 28.0 °F - 26.1 °F 92% 29.87 in 3.0 mi Calm Calm - N/A   Mostly Cloudy
7:25 AM 28.9 °F - 28.0 °F 96% 29.86 in 2.5 mi Calm Calm - N/A   Overcast
7:47 AM 30.2 °F - 30.2 °F 100% 29.87 in 1.8 mi Calm Calm - N/A   Overcast
7:52 AM 30.9 °F - 30.0 °F 96% 29.89 in 2.0 mi Calm Calm - N/A   Overcast
8:06 AM 30.9 °F - 30.9 °F 100% 29.87 in 1.5 mi Calm Calm - N/A   Overcast
8:24 AM 34.0 °F 29.8 °F 32.0 °F 92% 29.88 in 1.0 mi South 4.6 mph - N/A   Overcast
8:34 AM 35.1 °F 30.1 °F 34.0 °F 96% 29.87 in 0.8 mi South 5.8 mph - N/A   Overcast
8:50 AM 35.6 °F - 33.8 °F 93% 29.86 in 1.0 mi Calm Calm - N/A   Overcast
8:52 AM 35.1 °F - 34.0 °F 96% 29.88 in 1.2 mi Calm Calm - N/A   Overcast
9:00 AM 35.1 °F 31.0 °F 34.0 °F 96% 29.88 in 1.8 mi SSW 4.6 mph - N/A   Overcast
9:09 AM 36.0 °F 32.1 °F 35.1 °F 97% 29.88 in 2.5 mi South 4.6 mph - N/A   Overcast
9:19 AM 36.0 °F 32.1 °F 35.1 °F 97% 29.87 in 4.0 mi South 4.6 mph - N/A   Overcast
9:37 AM 37.0 °F 32.4 °F 35.1 °F 93% 29.88 in 6.0 mi South 5.8 mph - N/A   Mostly Cloudy
9:52 AM 37.9 °F 33.5 °F 34.0 °F 86% 29.90 in 7.0 mi South 5.8 mph - N/A   Partly Cloudy
10:52 AM 39.9 °F 35.8 °F 35.1 °F 83% 29.90 in 10.0 mi South 5.8 mph - N/A   Clear
11:52 AM 42.1 °F 38.4 °F 35.1 °F 76% 29.91 in 10.0 mi SSW 5.8 mph - N/A   Overcast
12:52 PM 45.0 °F 42.6 °F 32.0 °F 60% 29.90 in 10.0 mi Variable 4.6 mph - 0.00 in Rain Light Rain
1:52 PM 41.0 °F - 36.0 °F 82% 29.91 in 5.0 mi Calm Calm - 0.02 in Rain Light Rain
2:52 PM 39.9 °F 35.8 °F 37.0 °F 89% 29.92 in 10.0 mi WNW 5.8 mph - 0.02 in Rain Light Rain
3:52 PM 39.0 °F 35.7 °F 36.0 °F 89% 29.94 in 10.0 mi WNW 4.6 mph - 0.00 in   Overcast
4:52 PM 37.0 °F - 36.0 °F 96% 29.97 in 5.0 mi Calm Calm - N/A   Overcast
5:52 PM 37.9 °F 35.5 °F 34.0 °F 86% 29.97 in 10.0 mi WSW 3.5 mph - N/A   Overcast
6:52 PM 37.0 °F 33.3 °F 32.0 °F 82% 30.00 in 10.0 mi West 4.6 mph - N/A   Overcast
7:52 PM 37.0 °F 31.0 °F 30.9 °F 79% 30.02 in 10.0 mi West 8.1 mph - N/A   Overcast
8:52 PM 35.1 °F 32.2 °F 30.9 °F 85% 30.04 in 10.0 mi ESE 3.5 mph - N/A   Overcast
9:52 PM 35.1 °F - 30.0 °F 82% 30.05 in 10.0 mi Calm Calm - N/A   Overcast
10:13 PM 35.1 °F 31.0 °F 28.9 °F 78% 30.04 in 10.0 mi WNW 4.6 mph - N/A   Overcast
10:33 PM 36.0 °F 31.1 °F 28.9 °F 76% 30.05 in 10.0 mi WNW 5.8 mph - N/A   Mostly Cloudy
10:52 PM 36.0 °F 31.1 °F 28.9 °F 76% 30.07 in 10.0 mi West 5.8 mph - N/A   Mostly Cloudy
11:52 PM 35.1 °F 28.6 °F 28.9 °F 78% 30.09 in 10.0 mi WNW 8.1 mph - N/A   Clear